QPF
0.00 0.00 0.00 0.00 0.00 0.00 0.00 0.00 0.00 0.00 0.00 0.00 0.00 0.00 0.00 0.00 0.00 0.00 0.00 0.00 0.00 0.00 0.00 0.00 0.00 0.00 0.00 0.00 0.00 0.00 0.00 0.00 0.00 0.00 0.00 0.00 0.00 0.00 0.00 0.00 0.00 0.00 0.00
0.00 0.00 0.00 0.00 0.00 0.00 0.00 0.00 0.00 0.00 0.00 0.00 0.00 0.00 0.00 0.00 0.00 0.00 0.00 0.00 0.00 0.00 0.00 0.00 0.00 0.00 0.00 0.00 0.00 0.00 0.00 0.00 0.00 0.00 0.00 0.00 0.00 0.00 0.00 0.00 0.00 0.00 0.00
0.00 0.00 0.00 0.00 0.00 0.00 0.00 0.00 0.00 0.00 0.00 0.00 0.00 0.00 0.00 0.00 0.00 0.00 0.00 0.00 0.00 0.00 0.00 0.00 0.00 0.00 0.00 0.00 0.00 0.00 0.00 0.00 0.00 0.00 0.00 0.00 0.00 0.00 0.00 0.00 0.00 0.00 0.00
0.00 0.00 0.00 0.00 0.00 0.00 0.00 0.00 0.00 0.00 0.00 0.00 0.00 0.00 0.00 0.00 0.00 0.00 0.00 0.00 0.00 0.00 0.00 0.00 0.00 0.00 0.00 0.00 0.00 0.00 0.00 0.00 0.00 0.00 0.00 0.00 0.00 0.00 0.00 0.00 0.00 0.00 0.00
0.00 0.00 0.00 0.00 0.00 0.00 0.00 0.00 0.00 0.00 0.00 0.00 0.00 0.00 0.00 0.00 0.00 0.00 0.00 0.00 0.00 0.00 0.00 0.00 0.00 0.00 0.00 0.00 0.00 0.00 0.00 0.00 0.00 0.00 0.00 0.00 0.00 0.00 0.00 0.00 0.00 0.00 0.00
0.00 0.00 0.00 0.00 0.00 0.00 0.00 0.00 0.00 0.00 0.00 0.00 0.00 0.00 0.00 0.00 0.00 0.00 0.00 0.00 0.00 0.00 0.00 0.00 0.00 0.00 0.00 0.00 0.00 0.00 0.00 0.00 0.00 0.00 0.00 0.00 0.00 0.00 0.00 0.00 0.00 0.00 0.00
0.00 0.00 0.00 0.00 0.00 0.00 0.00 0.00 0.00 0.00 0.00 0.00 0.00 0.00 0.00 0.00 0.00 0.00 0.00 0.00 0.00 0.00 0.00 0.00 0.00 0.00 0.00 0.00 0.00 0.00 0.00 0.00 0.00 0.00 0.00 0.00 0.00 0.00 0.00 0.00 0.00 0.00 0.00
0.00 0.00 0.00 0.00 0.00 0.00 0.00 0.00 0.00 0.00 0.00 0.00 0.00 0.00 0.00 0.00 0.00 0.00 0.00 0.00 0.00 0.00 0.00 0.00 0.00 0.00 0.00 0.00 0.00 0.00 0.00 0.00 0.00 0.00 0.00 0.00 0.00 0.00 0.00 0.00 0.00 0.00 0.00
0.00 0.00 0.00 0.00 0.00 0.00 0.00 0.00 0.00 0.00 0.00 0.00 0.00 0.00 0.00 0.00 0.00 0.00 0.00 0.00 0.00 0.00 0.00 0.00 0.00 0.00 0.00 0.00 0.00 0.00 0.00 0.00 0.00 0.00 0.00 0.00 0.00 0.00 0.00 0.00 0.00 0.00 0.00
0.00 0.00 0.00 0.00 0.00 0.00 0.00 0.00 0.00 0.00 0.00 0.00 0.00 0.00 0.00 0.00 0.00 0.00 0.00 0.00 0.00 0.00 0.00 0.00 0.00 0.00 0.00 0.00 0.00 0.00 0.00 0.00 0.00 0.00 0.00 0.00 0.00 0.00 0.00 0.00 0.00 0.00 0.00
0.00 0.00 0.00 0.00 0.00 0.00 0.00 0.00 0.00 0.00 0.00 0.00 0.00 0.00 0.00 0.00 0.00 0.00 0.00 0.00 0.00 0.00 0.00 0.00 0.00 0.00 0.00 0.00 0.00 0.00 0.00 0.00 0.00 0.00 0.00 0.00 0.00 0.00 0.00 0.00 0.00 0.00 0.00
0.00 0.00 0.00 0.00 0.00 0.00 0.00 0.00 0.00 0.00 0.00 0.00 0.00 0.00 0.00 0.00 0.00 0.00 0.00 0.00 0.00 0.00 0.00 0.00 0.00 0.00 0.00 0.00 0.00 0.00 0.00 0.00 0.00 0.00 0.00 0.00 0.00 0.00 0.00 0.00 0.00 0.00 0.00
0.00 0.00 0.00 0.00 0.00 0.00 0.00 0.00 0.00 0.00 0.00 0.00 0.00 0.00 0.00 0.00 0.00 0.00 0.00 0.00 0.00 0.00 0.00 0.00 0.00 0.00 0.00 0.00 0.00 0.00 0.00 0.00 0.00 0.00 0.00 0.00 0.00 0.00 0.00 0.00 0.00 0.00 0.00
0.00 0.00 0.00 0.00 0.00 0.00 0.00 0.00 0.00 0.00 0.00 0.00 0.00 0.00 0.00 0.00 0.00 0.00 0.00 0.00 0.00 0.00 0.00 0.00 0.00 0.00 0.00 0.00 0.00 0.00 0.00 0.00 0.00 0.00 0.00 0.00 0.00 0.00 0.00 0.00 0.00 0.00 0.00
0.00 0.00 0.00 0.00 0.00 0.00 0.00 0.00 0.00 0.00 0.00 0.00 0.00 0.00 0.00 0.00 0.00 0.00 0.00 0.00 0.00 0.00 0.00 0.00 0.00 0.00 0.00 0.00 0.00 0.00 0.00 0.00 0.00 0.00 0.00 0.00 0.00 0.00 0.00 0.00 0.00 0.00 0.00
0.00 0.00 0.00 0.00 0.00 0.00 0.00 0.00 0.00 0.00 0.00 0.00 0.00 0.00 0.00 0.00 0.00 0.00 0.00 0.00 0.00 0.00 0.00 0.00 0.00 0.00 0.00 0.00 0.00 0.00 0.00 0.00 0.00 0.00 0.00 0.00 0.00 0.00 0.00 0.00 0.00 0.00 0.00
0.00 0.00 0.00 0.00 0.00 0.00 0.00 0.00 0.00 0.00 0.00 0.00 0.00 0.00 0.00 0.00 0.00 0.00 0.00 0.00 0.00 0.00 0.00 0.00 0.00 0.00 0.00 0.00 0.00 0.00 0.00 0.00 0.00 0.00 0.00 0.00 0.00 0.00 0.00 0.00 0.00 0.00 0.00
0.00 0.00 0.00 0.00 0.00 0.00 0.00 0.00 0.00 0.00 0.00 0.00 0.00 0.00 0.00 0.00 0.00 0.00 0.00 0.00 0.00 0.00 0.00 0.00 0.00 0.00 0.00 0.00 0.00 0.00 0.00 0.00 0.00 0.00 0.00 0.00 0.00 0.00 0.00 0.00 0.00 0.00 0.00
0.00 0.00 0.00 0.00 0.00 0.00 0.00 0.00 0.00 0.00 0.00 0.00 0.00 0.00 0.00 0.00 0.00 0.00 0.00 0.00 0.00 0.00 0.00 0.00 0.00 0.00 0.00 0.00 0.00 0.00 0.00 0.00 0.00 0.00 0.00 0.00 0.00 0.00 0.00 0.00 0.00 0.00 0.00
0.00 0.00 0.00 0.00 0.00 0.00 0.00 0.00 0.00 0.00 0.00 0.00 0.00 0.00 0.00 0.00 0.00 0.00 0.00 0.00 0.00 0.00 0.00 0.00 0.00 0.00 0.00 0.00 0.00 0.00 0.00 0.00 0.00 0.00 0.00 0.00 0.00 0.00 0.00 0.00 0.00 0.00 0.00
0.00 0.00 0.00 0.00 0.00 0.00 0.00 0.00 0.00 0.00 0.00 0.00 0.00 0.00 0.00 0.00 0.00 0.00 0.00 0.00 0.00 0.00 0.00 0.00 0.00 0.00 0.00 0.00 0.00 0.00 0.00 0.00 0.00 0.00 0.00 0.00 0.00 0.00 0.00 0.00 0.00 0.00 0.00
0.00 0.00 0.00 0.00 0.00 0.00 0.00 0.00 0.00 0.00 0.00 0.00 0.00 0.00 0.00 0.00 0.00 0.00 0.00 0.00 0.00 0.00 0.00 0.00 0.00 0.00 0.00 0.00 0.00 0.00 0.00 0.00 0.00 0.00 0.00 0.00 0.00 0.00 0.00 0.00 0.00 0.00 0.00
0.00 0.00 0.00 0.00 0.00 0.00 0.00 0.00 0.00 0.00 0.00 0.00 0.00 0.00 0.00 0.00 0.00 0.00 0.00 0.00 0.00 0.00 0.00 0.00 0.00 0.00 0.00 0.00 0.00 0.00 0.00 0.00 0.00 0.00 0.00 0.00 0.00 0.00 0.00 0.00 0.00 0.00 0.00
0.00 0.00 0.00 0.00 0.00 0.00 0.00 0.00 0.00 0.00 0.00 0.00 0.00 0.00 0.00 0.00 0.00 0.00 0.00 0.00 0.00 0.00 0.00 0.00 0.00 0.00 0.00 0.00 0.00 0.00 0.00 0.00 0.00 0.00 0.00 0.00 0.00 0.00 0.00 0.00 0.00 0.00 0.00
0.00 0.00 0.00 0.00 0.00 0.00 0.00 0.00 0.00 0.00 0.00 0.00 0.00 0.00 0.00 0.00 0.00 0.00 0.00 0.00 0.00 0.00 0.00 0.00 0.00 0.00 0.00 0.00 0.00 0.00 0.00 0.00 0.00 0.00 0.00 0.00 0.00 0.00 0.00 0.00 0.00 0.00 0.00
0.00 0.00 0.00 0.00 0.00 0.00 0.00 0.00 0.00 0.00 0.00 0.00 0.00 0.00 0.00 0.00 0.00 0.00 0.00 0.00 0.00 0.00 0.00 0.00 0.00 0.00 0.00 0.00 0.00 0.00 0.00 0.00 0.00 0.00 0.00 0.00 0.00 0.00 0.00 0.00 0.00 0.00 0.00
MSLP
1013.57 1014.57 1015.38 1016.17 1016.70 1017.22 1017.86 1018.19 1018.85 1019.37 1019.90 1020.34 1020.36 1020.20 1020.08 1020.19 1020.13 1020.13 1020.05 1019.85 1019.76 1019.65 1019.53 1019.32 1019.14 1019.01 1018.81 1018.68 1018.50 1018.30 1018.02 1017.73 1016.86 1015.45 1015.24 1014.69 1014.11 1013.49 1012.61 1011.96 1011.36 1010.57 1009.66
1013.23 1014.16 1015.00 1015.83 1016.48 1017.10 1017.65 1018.16 1018.77 1019.07 1019.66 1020.02 1020.06 1019.92 1019.83 1020.08 1020.06 1019.96 1019.81 1019.68 1019.59 1019.45 1019.46 1019.32 1018.99 1018.65 1018.39 1018.21 1017.94 1017.70 1017.45 1017.16 1016.81 1015.62 1015.01 1014.51 1013.91 1013.09 1012.56 1011.94 1011.22 1010.37 1009.56
1012.97 1013.83 1014.78 1015.70 1016.21 1016.92 1017.42 1018.07 1018.63 1018.85 1019.58 1019.87 1019.91 1019.85 1019.68 1019.84 1019.85 1019.76 1019.57 1019.38 1019.32 1019.29 1019.22 1019.08 1018.80 1018.48 1018.13 1017.93 1017.68 1017.36 1016.98 1016.66 1016.34 1015.82 1014.76 1014.32 1013.61 1012.98 1012.26 1011.85 1011.26 1010.35 1009.75
1012.71 1013.53 1014.40 1015.17 1015.79 1016.61 1017.24 1018.03 1018.56 1018.81 1019.42 1019.64 1019.87 1019.87 1019.63 1019.63 1019.60 1019.44 1019.29 1019.20 1019.07 1019.03 1019.11 1018.94 1018.69 1018.34 1018.01 1017.77 1017.47 1017.06 1016.64 1016.30 1015.91 1015.47 1014.78 1014.09 1013.61 1012.86 1012.58 1011.92 1010.92 1010.63 1010.09
1012.25 1013.12 1013.89 1014.66 1015.55 1016.42 1017.14 1017.96 1018.43 1018.66 1019.12 1019.24 1019.67 1019.74 1019.63 1019.37 1019.41 1019.24 1018.98 1019.00 1019.00 1018.94 1018.87 1018.75 1018.47 1018.27 1017.95 1017.61 1017.23 1016.67 1016.19 1015.85 1015.48 1015.09 1014.55 1013.99 1013.38 1012.85 1012.64 1012.30 1011.76 1011.06 1010.57
1011.73 1012.59 1013.36 1014.32 1015.30 1016.11 1016.94 1017.72 1018.23 1018.43 1018.83 1019.04 1019.25 1019.50 1019.43 1019.14 1018.95 1018.88 1018.70 1018.77 1018.99 1018.92 1018.91 1018.54 1018.35 1018.00 1017.69 1017.34 1016.93 1016.45 1015.86 1015.31 1014.99 1014.73 1014.36 1013.94 1013.46 1013.42 1013.07 1012.71 1012.04 1011.44 1011.12
1011.13 1011.98 1012.81 1013.73 1014.73 1015.61 1016.53 1017.48 1017.92 1018.14 1018.53 1018.80 1018.91 1019.13 1019.24 1018.93 1018.63 1018.55 1018.54 1018.73 1018.92 1018.98 1018.89 1018.61 1018.25 1017.80 1017.42 1016.93 1016.65 1016.24 1015.77 1015.37 1015.13 1014.87 1014.46 1014.17 1013.85 1013.68 1013.48 1012.82 1012.33 1011.94 1011.92
1010.32 1011.20 1012.14 1013.16 1014.11 1015.08 1016.11 1016.86 1017.46 1017.74 1017.97 1018.22 1018.49 1018.46 1018.71 1018.80 1018.66 1018.34 1018.31 1018.43 1018.69 1018.87 1018.83 1018.63 1018.21 1017.72 1017.31 1016.77 1016.60 1016.20 1016.06 1015.76 1015.48 1015.11 1014.82 1014.42 1014.08 1013.80 1013.60 1013.10 1012.33 1012.00 1012.03
1009.32 1010.27 1011.32 1012.34 1013.28 1014.31 1015.26 1015.98 1016.74 1017.16 1017.42 1017.56 1017.72 1018.02 1018.19 1018.20 1018.32 1018.26 1018.09 1018.23 1018.40 1018.57 1018.53 1018.44 1018.11 1017.70 1017.24 1016.87 1016.72 1016.50 1016.20 1015.95 1015.71 1015.31 1014.91 1014.59 1014.42 1014.03 1013.56 1012.81 1012.25 1012.02 1011.98
1008.05 1009.03 1010.06 1011.10 1012.09 1013.10 1013.99 1014.88 1015.74 1016.19 1016.31 1016.79 1017.17 1017.40 1017.56 1017.63 1017.72 1017.77 1017.76 1018.02 1018.22 1018.38 1018.39 1018.22 1017.85 1017.47 1017.18 1016.83 1016.73 1016.56 1016.25 1016.05 1015.88 1015.60 1015.29 1015.01 1014.83 1014.37 1013.85 1013.69 1013.14 1012.41 1012.23
1007.30 1008.10 1009.23 1010.16 1011.02 1012.02 1013.09 1014.09 1014.78 1015.43 1015.81 1016.14 1016.46 1016.72 1016.98 1017.11 1017.26 1017.27 1017.17 1017.33 1017.58 1017.87 1018.02 1017.98 1017.73 1017.32 1017.08 1016.84 1016.72 1016.62 1016.37 1016.06 1016.08 1016.03 1015.76 1015.42 1015.03 1014.68 1014.30 1013.89 1013.72 1013.09 1012.55
1006.89 1007.52 1008.63 1009.61 1010.45 1011.59 1012.55 1013.42 1014.11 1014.64 1015.10 1015.52 1015.95 1016.20 1016.28 1016.39 1016.62 1016.78 1016.72 1016.66 1016.92 1017.29 1017.44 1017.65 1017.65 1017.33 1017.23 1017.06 1016.97 1016.71 1016.46 1016.31 1016.32 1016.16 1015.98 1015.63 1015.40 1015.09 1014.80 1014.41 1014.07 1013.97 1013.63
1006.85 1007.57 1008.35 1009.12 1009.90 1010.72 1011.72 1012.68 1013.40 1013.78 1014.18 1014.60 1015.00 1015.30 1015.36 1015.51 1015.84 1015.97 1016.12 1016.18 1016.27 1016.67 1017.00 1017.26 1017.37 1017.39 1017.35 1017.33 1017.11 1016.93 1016.83 1016.62 1016.56 1016.51 1016.47 1016.29 1016.01 1015.84 1015.26 1014.98 1014.61 1014.40 1014.30
1006.90 1007.49 1008.38 1008.57 1009.46 1010.12 1010.81 1011.44 1011.98 1012.54 1013.07 1013.48 1013.85 1014.03 1014.31 1014.63 1015.08 1015.38 1015.46 1015.60 1015.80 1016.13 1016.57 1016.95 1017.21 1017.35 1017.34 1017.39 1017.29 1017.23 1017.23 1017.25 1017.26 1017.28 1017.05 1016.74 1016.39 1016.09 1015.86 1015.75 1015.24 1015.00 1014.59
1006.74 1007.66 1008.13 1008.35 1008.95 1009.67 1010.16 1010.38 1010.61 1010.85 1011.22 1011.71 1012.03 1012.45 1013.16 1013.52 1013.51 1013.80 1014.27 1014.95 1015.23 1015.65 1016.47 1016.93 1017.21 1017.29 1017.35 1017.42 1017.48 1017.59 1017.54 1017.44 1017.54 1017.73 1017.47 1017.21 1016.78 1016.50 1016.29 1016.23 1015.96 1015.63 1015.61
1007.35 1007.71 1007.73 1008.11 1008.62 1009.23 1009.76 1010.16 1010.17 1010.38 1010.74 1010.94 1011.20 1011.49 1011.85 1011.91 1012.20 1012.64 1013.13 1013.74 1014.45 1015.14 1016.06 1016.34 1016.56 1016.69 1016.90 1017.08 1017.32 1017.53 1017.68 1017.77 1017.96 1017.95 1017.80 1017.59 1017.44 1017.14 1016.78 1016.50 1016.31 1016.47 1016.64
1007.33 1007.34 1007.64 1008.07 1008.46 1008.92 1009.42 1009.70 1009.84 1009.88 1010.17 1010.42 1010.58 1010.75 1011.02 1011.30 1011.66 1011.85 1012.16 1012.72 1013.41 1014.56 1015.17 1015.64 1015.93 1016.03 1016.25 1016.58 1016.93 1017.25 1017.53 1017.75 1017.90 1017.80 1017.68 1017.52 1017.43 1017.35 1017.13 1016.96 1016.82 1016.77 1017.04
1007.37 1007.55 1007.77 1008.00 1008.35 1008.73 1009.04 1009.25 1009.42 1009.66 1009.82 1009.82 1009.88 1010.08 1010.29 1010.61 1010.98 1011.21 1011.60 1012.21 1012.95 1013.56 1014.35 1014.84 1015.32 1015.47 1015.92 1016.07 1016.40 1016.81 1017.22 1017.61 1017.64 1017.65 1017.71 1017.85 1017.79 1017.69 1017.64 1017.58 1017.47 1017.39 1017.42
1007.78 1007.77 1007.84 1007.98 1008.18 1008.40 1008.72 1009.02 1009.26 1009.48 1009.68 1009.85 1010.17 1010.04 1009.95 1010.05 1010.30 1010.69 1011.11 1011.27 1012.15 1012.91 1013.60 1014.21 1014.63 1014.97 1015.36 1015.68 1016.07 1016.57 1016.95 1017.18 1017.38 1017.62 1017.79 1017.84 1017.96 1017.82 1017.86 1017.88 1017.92 1017.95 1017.99
1007.92 1007.82 1007.85 1008.01 1008.28 1008.59 1008.82 1009.08 1009.27 1009.48 1009.66 1009.91 1010.14 1010.15 1010.14 1010.16 1009.84 1010.02 1010.39 1010.80 1011.55 1012.10 1012.78 1013.52 1014.12 1014.51 1014.91 1015.22 1015.78 1016.34 1016.91 1017.13 1017.23 1017.39 1017.52 1017.68 1017.84 1017.84 1017.66 1017.71 1017.75 1017.83 1017.95
1007.92 1007.86 1007.95 1008.10 1008.27 1008.52 1008.76 1009.02 1009.25 1009.46 1009.64 1009.85 1009.94 1009.92 1009.89 1010.01 1009.71 1009.74 1010.02 1010.41 1011.05 1011.65 1012.30 1012.95 1013.47 1013.95 1014.46 1014.81 1015.28 1015.92 1016.26 1016.41 1016.73 1016.99 1017.32 1017.46 1017.68 1017.63 1017.75 1017.78 1017.86 1017.93 1018.06
1008.35 1008.47 1008.60 1008.66 1008.76 1008.93 1009.17 1009.37 1009.52 1009.77 1009.89 1009.96 1010.02 1009.99 1009.75 1009.77 1009.93 1010.00 1010.13 1010.45 1010.81 1011.18 1011.53 1012.04 1012.69 1013.23 1013.62 1014.05 1014.56 1015.20 1015.66 1015.98 1016.30 1016.68 1017.01 1017.24 1017.42 1017.51 1017.67 1017.71 1017.83 1018.02 1018.16
1009.55 1009.78 1009.96 1010.09 1010.14 1010.26 1010.57 1010.83 1010.93 1010.83 1010.81 1010.90 1010.80 1010.58 1010.52 1010.44 1010.23 1010.31 1010.52 1010.70 1010.87 1011.06 1011.29 1011.73 1012.25 1012.74 1013.08 1013.54 1014.05 1014.44 1014.93 1015.32 1015.58 1016.10 1016.57 1016.84 1016.99 1017.12 1017.39 1017.47 1017.67 1017.92 1018.13
1011.40 1011.46 1011.57 1011.79 1011.97 1012.19 1012.34 1012.47 1012.35 1012.24 1012.40 1012.40 1012.25 1012.09 1012.02 1011.79 1011.58 1011.54 1011.47 1011.44 1011.48 1011.63 1011.74 1011.98 1012.25 1012.73 1013.29 1013.88 1014.24 1014.52 1014.74 1015.08 1015.41 1015.78 1016.12 1016.43 1016.69 1016.91 1017.12 1017.25 1017.34 1017.54 1017.70
1012.85 1012.98 1013.32 1013.63 1013.60 1013.79 1013.89 1013.89 1013.95 1014.14 1013.98 1013.95 1013.80 1013.61 1013.33 1013.11 1012.92 1012.85 1012.80 1012.74 1012.73 1012.75 1012.90 1012.99 1013.25 1013.63 1013.94 1014.30 1014.55 1014.76 1014.95 1015.08 1015.49 1015.80 1016.12 1016.32 1016.49 1016.68 1016.84 1016.95 1017.06 1017.25 1017.44
1014.64 1014.84 1015.04 1015.23 1015.44 1015.53 1015.57 1015.68 1015.78 1015.68 1015.75 1015.57 1015.27 1014.98 1014.75 1014.57 1014.48 1014.33 1014.20 1014.09 1014.03 1014.05 1014.15 1014.31 1014.51 1014.62 1014.75 1014.88 1014.90 1014.92 1014.99 1015.04 1015.25 1015.52 1015.81 1016.04 1016.32 1016.54 1016.66 1016.67 1016.78 1016.87 1017.05
Thickness
5550 5545 5541 5538 5536 5534 5530 5529 5524 5520 5517 5513 5514 5514 5513 5509 5507 5505 5503 5501 5499 5497 5494 5492 5488 5484 5480 5474 5468 5462 5456 5450 5447 5446 5435 5423 5409 5392 5372 5354 5348 5348 5358
5542 5539 5535 5532 5529 5527 5524 5521 5516 5515 5512 5509 5509 5510 5509 5505 5504 5502 5501 5499 5497 5494 5489 5486 5484 5481 5477 5472 5468 5462 5456 5448 5440 5439 5431 5420 5407 5391 5372 5357 5349 5347 5352
5534 5532 5527 5523 5523 5519 5516 5512 5509 5509 5505 5502 5503 5504 5504 5501 5499 5498 5497 5497 5494 5490 5487 5483 5481 5478 5475 5470 5465 5460 5455 5448 5440 5433 5429 5418 5407 5392 5377 5365 5356 5355 5355
5527 5525 5521 5518 5516 5512 5508 5503 5500 5501 5499 5497 5496 5496 5496 5494 5495 5495 5493 5492 5490 5487 5482 5480 5477 5474 5471 5466 5461 5457 5453 5447 5439 5433 5427 5419 5408 5397 5382 5373 5368 5361 5359
5521 5518 5515 5512 5509 5503 5499 5494 5493 5495 5493 5492 5489 5488 5489 5490 5489 5490 5490 5487 5484 5482 5478 5475 5473 5469 5466 5463 5459 5457 5453 5447 5441 5434 5428 5421 5414 5404 5390 5378 5371 5367 5364
5515 5512 5509 5506 5500 5496 5492 5487 5484 5486 5487 5484 5484 5482 5482 5485 5484 5484 5485 5481 5477 5475 5471 5471 5468 5466 5463 5460 5456 5454 5452 5448 5443 5436 5431 5424 5417 5404 5393 5382 5375 5373 5371
5509 5506 5503 5499 5494 5490 5485 5479 5478 5479 5478 5478 5477 5475 5475 5476 5478 5478 5477 5473 5470 5467 5465 5463 5462 5462 5459 5457 5453 5450 5447 5444 5439 5432 5427 5421 5413 5405 5395 5389 5382 5375 5368
5506 5502 5498 5493 5489 5483 5477 5473 5472 5472 5473 5472 5471 5470 5468 5467 5469 5470 5470 5467 5463 5459 5457 5455 5455 5455 5454 5452 5447 5444 5440 5437 5431 5427 5422 5417 5412 5406 5400 5394 5389 5381 5372
5504 5498 5492 5487 5483 5478 5474 5470 5467 5466 5466 5467 5466 5463 5462 5462 5462 5462 5462 5459 5457 5453 5450 5448 5448 5448 5447 5445 5441 5438 5434 5430 5426 5422 5418 5414 5408 5404 5401 5400 5399 5392 5386
5501 5495 5490 5486 5483 5477 5474 5467 5464 5463 5464 5463 5460 5457 5456 5456 5455 5455 5454 5451 5447 5445 5442 5440 5441 5441 5439 5438 5433 5429 5428 5424 5419 5415 5413 5409 5404 5401 5399 5394 5392 5398 5389
5495 5491 5486 5484 5480 5475 5469 5463 5460 5457 5457 5455 5454 5452 5449 5448 5446 5448 5448 5445 5442 5438 5435 5432 5432 5432 5431 5429 5425 5421 5418 5416 5411 5406 5403 5401 5399 5397 5394 5392 5389 5388 5391
5484 5484 5480 5477 5473 5466 5461 5455 5453 5452 5450 5447 5443 5443 5443 5442 5440 5440 5440 5439 5435 5431 5428 5424 5421 5422 5420 5418 5414 5411 5409 5405 5401 5398 5396 5395 5392 5389 5387 5386 5385 5382 5380
5471 5473 5471 5469 5466 5461 5455 5450 5448 5446 5446 5443 5440 5439 5439 5437 5434 5434 5432 5431 5429 5424 5420 5416 5414 5411 5409 5405 5403 5401 5396 5394 5391 5390 5386 5384 5381 5378 5378 5377 5377 5375 5374
5461 5462 5458 5461 5456 5454 5452 5450 5448 5444 5441 5439 5437 5436 5435 5431 5428 5425 5424 5422 5420 5417 5413 5408 5404 5401 5398 5393 5390 5388 5385 5381 5378 5376 5374 5371 5370 5369 5368 5366 5367 5367 5369
5451 5447 5448 5451 5449 5446 5444 5445 5446 5446 5444 5441 5439 5437 5432 5428 5428 5426 5421 5415 5412 5408 5399 5395 5392 5389 5387 5383 5380 5376 5373 5371 5367 5362 5360 5359 5358 5357 5356 5353 5354 5355 5355
5436 5437 5441 5442 5439 5438 5436 5435 5437 5437 5435 5435 5433 5431 5428 5428 5426 5423 5419 5414 5407 5401 5391 5389 5387 5383 5380 5376 5371 5367 5362 5358 5353 5350 5348 5346 5344 5344 5345 5344 5344 5342 5340
5427 5430 5431 5430 5430 5428 5426 5427 5428 5427 5428 5427 5426 5425 5422 5419 5418 5417 5415 5410 5404 5393 5385 5381 5380 5377 5372 5366 5361 5356 5354 5347 5341 5341 5339 5337 5335 5333 5334 5333 5332 5332 5328
5411 5414 5417 5418 5418 5417 5417 5417 5418 5419 5417 5418 5418 5417 5416 5413 5409 5408 5406 5402 5393 5387 5378 5375 5369 5365 5358 5356 5351 5346 5340 5336 5333 5331 5327 5323 5321 5321 5320 5318 5317 5316 5315
5398 5401 5404 5406 5407 5407 5407 5406 5406 5405 5405 5403 5399 5403 5404 5404 5402 5399 5397 5396 5384 5378 5370 5363 5358 5354 5348 5344 5339 5334 5329 5326 5322 5317 5312 5309 5306 5306 5304 5300 5298 5293 5294
5387 5389 5392 5394 5394 5394 5394 5394 5393 5393 5393 5391 5388 5387 5388 5388 5393 5391 5388 5385 5375 5371 5363 5355 5348 5343 5337 5333 5326 5320 5314 5311 5307 5304 5301 5297 5294 5292 5293 5290 5288 5290 5287
5380 5382 5384 5385 5386 5385 5385 5384 5383 5382 5381 5379 5378 5376 5377 5376 5380 5379 5377 5374 5366 5359 5351 5344 5337 5331 5324 5320 5314 5307 5303 5301 5296 5292 5287 5284 5281 5281 5278 5277 5274 5272 5271
5370 5371 5371 5372 5373 5373 5372 5370 5369 5367 5366 5366 5365 5362 5365 5365 5362 5361 5359 5355 5350 5344 5340 5334 5327 5320 5314 5309 5303 5296 5291 5287 5283 5278 5274 5270 5268 5266 5264 5263 5261 5259 5258
5349 5348 5347 5348 5348 5348 5345 5343 5343 5344 5345 5344 5344 5345 5344 5343 5344 5343 5339 5335 5331 5328 5324 5319 5313 5306 5300 5294 5289 5284 5279 5275 5271 5265 5261 5258 5256 5254 5251 5250 5248 5245 5244
5324 5324 5324 5323 5322 5320 5320 5318 5320 5321 5319 5318 5318 5317 5316 5316 5316 5315 5314 5312 5309 5305 5302 5298 5293 5287 5280 5274 5270 5266 5263 5259 5255 5250 5246 5243 5241 5239 5236 5235 5234 5233 5232
5304 5303 5301 5299 5300 5298 5298 5297 5296 5293 5293 5292 5291 5290 5290 5290 5289 5287 5285 5283 5280 5278 5274 5271 5266 5261 5257 5252 5248 5245 5242 5238 5235 5231 5228 5226 5224 5222 5220 5219 5218 5216 5215
5280 5279 5278 5276 5273 5272 5271 5269 5268 5267 5264 5263 5263 5263 5262 5261 5259 5258 5256 5254 5251 5248 5245 5241 5237 5234 5230 5227 5225 5222 5220 5217 5214 5211 5208 5206 5204 5202 5201 5200 5199 5198 5197